EW3958 Weather Reports


Display with metric or nautical units.
time (UTC)temp
F
wind
direction
speed
MPH
gust
MPH
rain 1hr
in
rain 24hr
in
rain mn
in
humidity
%
barometer
mb
20171211001311 45 258 7.0 11.0 0.00 0.00 0.00 36 1020.3
20171211000710 44 255 5.0 10.0 0.00 0.00 0.00 36 1020.3
20171211000112 44 255 5.0 8.0 0.00 0.00 0.00 35 1020.3
20171210235510 45 262 6.0 9.0 0.00 0.00 0.00 34 1020.4
20171210234911 46 262 6.0 9.0 0.00 0.00 0.00 31 1020.4
20171210234310 47 259 6.0 9.0 0.00 0.00 0.00 30 1020.4
20171210233711 48 257 8.0 15.0 0.00 0.00 0.00 29 1020.3
20171210233110 49 256 8.0 17.0 0.00 0.00 0.00 27 1020.3
20171210232511 49 258 7.0 12.0 0.00 0.00 0.00 27 1020.3
20171210231910 49 256 7.0 11.0 0.00 0.00 0.00 26 1020.3
20171210231310 49 256 5.0 8.0 0.00 0.00 0.00 26 1020.4
20171210230711 50 257 7.0 10.0 0.00 0.00 0.00 26 1020.3
20171210230112 51 257 7.0 10.0 0.00 0.00 0.00 24 1020.3
20171210225511 51 256 7.0 11.0 0.00 0.00 0.00 24 1020.3
20171210224910 52 255 7.0 11.0 0.00 0.00 0.00 24 1020.4
20171210224311 53 257 7.0 11.0 0.00 0.00 0.00 23 1020.4
20171210223710 54 260 6.0 10.0 0.00 0.00 0.00 21 1020.5
20171210223110 54 259 6.0 10.0 0.00 0.00 0.00 22 1020.4
20171210222510 54 258 6.0 10.0 0.00 0.00 0.00 22 1020.3
20171210221910 55 261 7.0 17.0 0.00 0.00 0.00 21 1020.3
20171210221310 56 259 8.0 17.0 0.00 0.00 0.00 20 1020.3
20171210220710 56 257 8.0 11.0 0.00 0.00 0.00 20 1020.3
20171210220111 57 260 10.0 17.0 0.00 0.00 0.00 19 1020.3
20171210215510 57 264 12.0 17.0 0.00 0.00 0.00 18 1020.3
20171210214910 58 264 12.0 23.0 0.00 0.00 0.00 19 1020.3
20171210214310 58 264 14.0 19.0 0.00 0.00 0.00 18 1020.3
20171210213710 58 264 15.0 22.0 0.00 0.00 0.00 18 1020.3
20171210213110 58 266 14.0 22.0 0.00 0.00 0.00 18 1020.3
20171210212510 58 267 13.0 21.0 0.00 0.00 0.00 18 1020.4
20171210211910 58 266 14.0 21.0 0.00 0.00 0.00 19 1020.4
20171210211310 58 268 13.0 21.0 0.00 0.00 0.00 18 1020.5
20171210210711 59 270 10.0 20.0 0.00 0.00 0.00 17 1020.5
20171210210112 59 270 11.0 20.0 0.00 0.00 0.00 18 1020.5
20171210205510 59 265 13.0 23.0 0.00 0.00 0.00 18 1020.6
20171210204910 60 264 15.0 23.0 0.00 0.00 0.00 18 1020.6
20171210204310 60 268 14.0 23.0 0.00 0.00 0.00 17 1020.5
20171210203710 60 270 13.0 25.0 0.00 0.00 0.00 16 1020.5
20171210203110 60 271 13.0 27.0 0.00 0.00 0.00 15 1020.5
20171210202511 60 275 12.0 23.0 0.00 0.00 0.00 17 1020.7
20171210201910 60 273 13.0 23.0 0.00 0.00 0.00 17 1020.7
20171210201311 59 270 14.0 20.0 0.00 0.00 0.00 17 1020.8
20171210200711 60 270 13.0 20.0 0.00 0.00 0.00 18 1020.8
20171210200112 59 272 13.0 25.0 0.00 0.00 0.00 17 1020.9
20171210195511 59 275 13.0 23.0 0.00 0.00 0.00 17 1020.9
20171210194910 59 278 13.0 21.0 0.00 0.00 0.00 18 1021.0
20171210194311 59 276 12.0 21.0 0.00 0.00 0.00 18 1021.1
20171210193710 59 272 13.0 24.0 0.00 0.00 0.00 18 1021.2
20171210193111 58 270 14.0 27.0 0.00 0.00 0.00 18 1021.4
20171210192511 58 270 14.0 27.0 0.00 0.00 0.00 19 1021.5
20171210191911 58 270 12.0 20.0 0.00 0.00 0.00 18 1021.5
20171210191310 58 275 12.0 21.0 0.00 0.00 0.00 18 1021.5
20171210190711 57 270 14.0 20.0 0.00 0.00 0.00 19 1021.8
20171210190111 57 275 14.0 22.0 0.00 0.00 0.00 19 1021.8
20171210185511 57 275 12.0 22.0 0.00 0.00 0.00 19 1021.8
20171210184911 57 270 12.0 22.0 0.00 0.00 0.00 20 1021.8
20171210184310 57 274 12.0 18.0 0.00 0.00 0.00 20 1021.9
20171210183711 56 274 11.0 18.0 0.00 0.00 0.00 20 1021.8
20171210183110 56 279 12.0 22.0 0.00 0.00 0.00 20 1021.9
20171210182511 56 283 12.0 22.0 0.00 0.00 0.00 20 1022.2
20171210181910 56 281 10.0 19.0 0.00 0.00 0.00 21 1022.2
20171210181311 56 282 10.0 18.0 0.00 0.00 0.00 21 1022.3
20171210180710 55 284 11.0 22.0 0.00 0.00 0.00 21 1022.3
20171210180111 56 277 11.0 21.0 0.00 0.00 0.00 21 1022.3
20171210175510 55 276 13.0 23.0 0.00 0.00 0.00 20 1022.4
20171210174911 54 272 12.0 23.0 0.00 0.00 0.00 22 1022.5
20171210174311 54 276 9.0 17.0 0.00 0.00 0.00 22 1022.5
20171210173710 53 282 10.0 16.0 0.00 0.00 0.00 24 1022.7
20171210173111 53 275 9.0 22.0 0.00 0.00 0.00 24 1022.7
20171210172511 53 270 9.0 22.0 0.00 0.00 0.00 23 1022.8
20171210171911 53 266 7.0 12.0 0.00 0.00 0.00 24 1022.7
20171210171310 52 270 8.0 13.0 0.00 0.00 0.00 26 1022.7
20171210170711 51 274 8.0 12.0 0.00 0.00 0.00 26 1022.6
20171210170111 51 272 7.0 15.0 0.00 0.00 0.00 26 1022.7
20171210165511 51 274 6.0 15.0 0.00 0.00 0.00 27 1022.6
20171210164910 50 268 9.0 15.0 0.00 0.00 0.00 27 1022.7
20171210164311 50 267 9.0 15.0 0.00 0.00 0.00 28 1022.6
20171210163711 49 269 8.0 13.0 0.00 0.00 0.00 29 1022.6
20171210163110 49 275 6.0 11.0 0.00 0.00 0.00 29 1022.6
20171210162511 48 274 5.0 10.0 0.00 0.00 0.00 30 1022.6
20171210161910 48 266 7.0 11.0 0.00 0.00 0.00 31 1022.5
20171210161310 47 267 6.0 13.0 0.00 0.00 0.00 31 1022.4
20171210160710 47 259 6.0 13.0 0.00 0.00 0.00 35 1022.4
20171210160111 45 254 4.0 8.0 0.00 0.00 0.00 37 1022.5
20171210155510 43 246 2.0 6.0 0.00 0.00 0.00 42 1022.4
20171210154910 40 245 1.0 4.0 0.00 0.00 0.00 46 1022.4
20171210154310 38 0 0.0 0.0 0.00 0.00 0.00 48 1022.5
20171210153710 37 236 0.0 2.0 0.00 0.00 0.00 49 1022.5
20171210153110 36 237 0.0 2.0 0.00 0.00 0.00 51 1022.3
20171210152510 35 239 1.0 5.0 0.00 0.00 0.00 52 1022.2
20171210151910 34 238 2.0 5.0 0.00 0.00 0.00 54 1022.3
20171210151311 33 242 2.0 5.0 0.00 0.00 0.00 55 1022.3
20171210150710 33 256 4.0 6.0 0.00 0.00 0.00 55 1022.4
20171210150110 33 257 5.0 7.0 0.00 0.00 0.00 55 1022.4
20171210145510 32 258 4.0 6.0 0.00 0.00 0.00 57 1022.4
20171210144911 31 253 4.0 6.0 0.00 0.00 0.00 60 1022.5
20171210144310 30 246 3.0 5.0 0.00 0.00 0.00 61 1022.4
20171210143711 30 241 4.0 5.0 0.00 0.00 0.00 61 1022.4
20171210143110 29 242 3.0 4.0 0.00 0.00 0.00 60 1022.4
20171210142510 30 242 3.0 4.0 0.00 0.00 0.00 59 1022.4
20171210141911 30 248 3.0 5.0 0.00 0.00 0.00 58 1022.4
20171210141310 31 250 4.0 7.0 0.00 0.00 0.00 57 1022.4
20171210140710 31 250 6.0 10.0 0.00 0.00 0.00 57 1022.3
20171210140110 31 251 7.0 11.0 0.00 0.00 0.00 56 1022.3
20171210135510 32 248 7.0 11.0 0.00 0.00 0.00 56 1022.4
20171210134910 31 244 6.0 8.0 0.00 0.00 0.00 56 1022.4
20171210134311 32 247 5.0 8.0 0.00 0.00 0.00 55 1022.4
20171210133710 32 250 5.0 9.0 0.00 0.00 0.00 53 1022.4
20171210133110 34 255 7.0 9.0 0.00 0.00 0.00 51 1022.3
20171210132510 34 259 8.0 11.0 0.00 0.00 0.00 50 1022.2
20171210131910 35 258 9.0 12.0 0.00 0.00 0.00 49 1022.2
20171210131310 34 257 9.0 13.0 0.00 0.00 0.00 50 1022.1
20171210130710 34 254 8.0 13.0 0.00 0.00 0.00 50 1022.0
20171210130111 34 256 7.0 15.0 0.00 0.00 0.00 51 1022.0
20171210125510 34 260 8.0 15.0 0.00 0.00 0.00 50 1022.1
20171210124910 34 261 8.0 12.0 0.00 0.00 0.00 51 1022.1
20171210124310 33 258 9.0 12.0 0.00 0.00 0.00 52 1022.0
20171210123710 34 258 9.0 13.0 0.00 0.00 0.00 51 1021.9
20171210123110 34 259 9.0 15.0 0.00 0.00 0.00 52 1022.0
20171210122510 34 258 9.0 15.0 0.00 0.00 0.00 52 1021.9
20171210121910 33 257 8.0 13.0 0.00 0.00 0.00 53 1021.8
20171210121310 33 258 8.0 11.0 0.00 0.00 0.00 53 1021.8
20171210120709 34 258 9.0 12.0 0.00 0.00 0.00 51 1021.8
20171210120110 34 260 9.0 13.0 0.00 0.00 0.00 50 1021.8
20171210115510 34 259 8.0 13.0 0.00 0.00 0.00 50 1021.8
20171210114910 34 257 8.0 10.0 0.00 0.00 0.00 51 1021.7
20171210114310 35 259 10.0 16.0 0.00 0.00 0.00 49 1021.7
20171210113710 36 262 12.0 16.0 0.00 0.00 0.00 47 1021.7
20171210113110 37 262 12.0 15.0 0.00 0.00 0.00 45 1021.6
20171210112510 37 263 12.0 18.0 0.00 0.00 0.00 45 1021.6
20171210111910 37 263 12.0 17.0 0.00 0.00 0.00 45 1021.5
20171210111310 38 264 14.0 22.0 0.00 0.00 0.00 44 1021.4
20171210110710 38 265 14.0 22.0 0.00 0.00 0.00 44 1021.5
20171210110111 38 266 14.0 22.0 0.00 0.00 0.00 44 1021.3
20171210105510 37 266 12.0 18.0 0.00 0.00 0.00 45 1021.3
20171210104910 38 269 11.0 20.0 0.00 0.00 0.00 44 1021.3
20171210104310 37 270 10.0 20.0 0.00 0.00 0.00 45 1021.4
20171210103710 37 270 10.0 16.0 0.00 0.00 0.00 45 1021.4
20171210103110 37 270 11.0 17.0 0.00 0.00 0.00 45 1021.4
20171210102510 38 273 10.0 17.0 0.00 0.00 0.00 44 1021.4
20171210101910 38 275 9.0 13.0 0.00 0.00 0.00 43 1021.4
20171210101310 38 274 9.0 13.0 0.00 0.00 0.00 43 1021.4
20171210100710 38 274 9.0 15.0 0.00 0.00 0.00 43 1021.3
20171210100110 39 276 10.0 15.0 0.00 0.00 0.00 42 1021.3
20171210095510 39 274 9.0 12.0 0.00 0.00 0.00 41 1021.3
20171210094910 39 275 9.0 18.0 0.00 0.00 0.00 41 1021.3
20171210094310 40 281 10.0 20.0 0.00 0.00 0.00 40 1021.2
20171210093710 40 284 10.0 18.0 0.00 0.00 0.00 40 1021.1
20171210093110 40 283 10.0 17.0 0.00 0.00 0.00 40 1021.0
20171210092510 40 281 10.0 17.0 0.00 0.00 0.00 41 1021.0
20171210091911 40 276 10.0 17.0 0.00 0.00 0.00 40 1020.9
20171210091310 40 279 9.0 17.0 0.00 0.00 0.00 39 1020.8
20171210090710 40 281 8.0 17.0 0.00 0.00 0.00 39 1020.9
20171210090110 40 279 10.0 19.0 0.00 0.00 0.00 40 1020.8
20171210085510 40 275 14.0 22.0 0.00 0.00 0.00 40 1020.8
20171210084910 40 273 14.0 22.0 0.00 0.00 0.00 39 1020.6
20171210084310 41 276 14.0 20.0 0.00 0.00 0.00 38 1020.4
20171210083710 41 273 13.0 20.0 0.00 0.00 0.00 37 1020.3
20171210083110 42 273 13.0 18.0 0.00 0.00 0.00 36 1020.2
20171210082510 42 273 13.0 17.0 0.00 0.00 0.00 36 1020.2
20171210081910 42 272 12.0 19.0 0.00 0.00 0.00 36 1020.2
20171210081310 42 275 13.0 19.0 0.00 0.00 0.00 35 1020.2
20171210080710 42 274 12.0 20.0 0.00 0.00 0.00 36 1020.1
20171210080110 42 274 13.0 20.0 0.00 0.00 0.00 36 1020.2
20171210075510 42 276 13.0 20.0 0.00 0.00 0.00 37 1020.2
20171210074910 42 273 13.0 21.0 0.00 0.00 0.00 36 1020.1
20171210074310 42 271 13.0 21.0 0.00 0.00 0.00 36 1020.1
20171210073710 42 269 12.0 20.0 0.00 0.00 0.00 37 1020.0
20171210073110 42 269 12.0 21.0 0.00 0.00 0.00 38 1020.0
20171210072510 42 270 12.0 21.0 0.00 0.00 0.00 37 1020.0
20171210071910 42 270 13.0 20.0 0.00 0.00 0.00 37 1020.0
20171210071310 42 271 12.0 19.0 0.00 0.00 0.00 38 1020.1
20171210070710 42 269 11.0 18.0 0.00 0.00 0.00 38 1020.1
20171210070110 41 267 10.0 15.0 0.00 0.00 0.00 40 1020.3
20171210065510 40 268 10.0 18.0 0.00 0.00 0.00 41 1020.3
20171210064909 41 270 10.0 18.0 0.00 0.00 0.00 41 1020.3
20171210064310 41 270 10.0 17.0 0.00 0.00 0.00 41 1020.4
20171210063710 40 269 9.0 16.0 0.00 0.00 0.00 41 1020.4
20171210063110 41 269 10.0 18.0 0.00 0.00 0.00 41 1020.4
20171210062511 41 267 10.0 19.0 0.00 0.00 0.00 41 1020.5
20171210061910 41 268 10.0 19.0 0.00 0.00 0.00 41 1020.6
20171210061311 41 268 11.0 20.0 0.00 0.00 0.00 41 1020.7
20171210060710 41 271 11.0 16.0 0.00 0.00 0.00 41 1020.6
20171210060111 42 273 11.0 16.0 0.00 0.00 0.00 40 1020.7
20171210055509 42 271 10.0 16.0 0.00 0.00 0.00 40 1020.5
20171210054910 42 272 11.0 18.0 0.00 0.00 0.00 41 1020.4
20171210054310 42 270 11.0 18.0 0.00 0.00 0.00 41 1020.4
20171210053709 40 266 12.0 20.0 0.00 0.00 0.00 44 1020.3
20171210053110 40 265 12.0 20.0 0.00 0.00 0.00 44 1020.2
20171210052509 39 268 10.0 17.0 0.00 0.00 0.00 46 1020.1
20171210051910 39 268 9.0 13.0 0.00 0.00 0.00 45 1020.1
20171210051309 39 266 8.0 12.0 0.00 0.00 0.00 46 1020.0
20171210050710 39 262 8.0 12.0 0.00 0.00 0.00 47 1019.9
20171210050111 37 262 7.0 11.0 0.00 0.00 0.00 50 1019.8
20171210045510 36 261 7.0 10.0 0.00 0.00 0.00 52 1019.8
20171210044909 37 263 8.0 12.0 0.00 0.00 0.00 51 1019.8
20171210044310 37 263 9.0 12.0 0.00 0.00 0.00 51 1019.8
20171210043709 38 264 9.0 12.0 0.00 0.00 0.00 50 1019.8
20171210043109 37 263 8.0 11.0 0.00 0.00 0.00 52 1019.8
20171210042510 36 258 7.0 10.0 0.00 0.00 0.00 54 1019.8
20171210041909 35 254 6.0 9.0 0.00 0.00 0.00 55 1019.7
20171210041310 34 250 4.0 7.0 0.00 0.00 0.00 58 1019.8
20171210040709 35 246 4.0 8.0 0.00 0.00 0.00 56 1019.7
20171210040111 35 249 5.0 8.0 0.00 0.00 0.00 56 1019.7
20171210035509 35 256 6.0 7.0 0.00 0.00 0.00 56 1019.8
20171210034909 35 258 6.0 7.0 0.00 0.00 0.00 57 1019.8
20171210034309 34 256 6.0 9.0 0.00 0.00 0.00 59 1019.8
20171210033710 34 254 6.0 9.0 0.00 0.00 0.00 59 1019.8
20171210033109 35 252 6.0 8.0 0.00 0.00 0.00 59 1019.8
20171210032509 34 251 6.0 8.0 0.00 0.00 0.00 60 1019.7
20171210031910 34 248 5.0 8.0 0.00 0.00 0.00 60 1019.8
20171210031309 35 249 6.0 8.0 0.00 0.00 0.00 59 1019.8
20171210030709 35 258 5.0 8.0 0.00 0.00 0.00 61 1019.7
20171210030110 33 260 3.0 5.0 0.00 0.00 0.00 63 1019.6
20171210025509 34 260 3.0 5.0 0.00 0.00 0.00 62 1019.7
20171210024909 34 260 2.0 5.0 0.00 0.00 0.00 61 1019.7
20171210024309 34 261 3.0 4.0 0.00 0.00 0.00 61 1019.8
20171210023709 35 261 3.0 4.0 0.00 0.00 0.00 59 1019.8
20171210023109 35 262 3.0 5.0 0.00 0.00 0.00 61 1019.8
20171210022509 35 262 4.0 5.0 0.00 0.00 0.00 60 1019.8
20171210021909 35 259 4.0 7.0 0.00 0.00 0.00 61 1019.8
20171210021309 33 246 4.0 7.0 0.00 0.00 0.00 63 1019.8
20171210020709 34 242 3.0 6.0 0.00 0.00 0.00 63 1019.8
20171210020109 34 246 2.0 4.0 0.00 0.00 0.00 62 1019.7
20171210015509 34 249 2.0 4.0 0.00 0.00 0.00 61 1019.5
20171210014909 35 250 2.0 5.0 0.00 0.00 0.00 61 1019.6
20171210014309 34 245 3.0 5.0 0.00 0.00 0.00 63 1019.6
20171210013709 34 241 2.0 4.0 0.00 0.00 0.00 63 1019.5
20171210013110 35 242 2.0 4.0 0.00 0.00 0.00 62 1019.5
20171210012509 35 252 3.0 6.0 0.00 0.00 0.00 60 1019.4
20171210011910 36 249 4.0 6.0 0.00 0.00 0.00 59 1019.3
20171210011309 37 252 5.0 8.0 0.00 0.00 0.00 57 1019.2
20171210010710 38 259 7.0 9.0 0.00 0.00 0.00 55 1019.2
20171210010110 39 260 8.0 11.0 0.00 0.00 0.00 54 1019.2
20171210005509 39 261 8.0 11.0 0.00 0.00 0.00 55 1019.2
20171210004909 39 261 9.0 11.0 0.00 0.00 0.00 55 1019.2
20171210004309 38 260 8.0 11.0 0.00 0.00 0.00 56 1019.1
20171210003710 37 259 7.0 9.0 0.00 0.00 0.00 58 1019.1
20171210003109 36 259 6.0 8.0 0.00 0.00 0.00 59 1019.1
20171210002510 36 255 6.0 8.0 0.00 0.00 0.00 59 1019.1
20171210001909 36 251 5.0 6.0 0.00 0.00 0.00 59 1019.1